Tracking 27111 objects as of 29-Mar-2023
HD Live streaming from Space Station
objects crossing your sky now

LEMUR 2 AMANDA-SVANTE

Track LEMUR 2 AMANDA-SVANTE now!
10-day predictions
LEMUR 2 AMANDA-SVANTE is classified as:


NORAD ID: 48269
Int'l Code: 2021-034B
Perigee: 601.0 km
Apogee: 605.8 km
Inclination: 97.7 °
Period: 96.6 minutes
Semi major axis: 6974 km
RCS: Unknown
Launch date: April 29, 2021
Source: United States (US)
Launch site: FRENCH GUIANA (FRGUI)
Your satellite tracking list
Your tracking list is empty




NASA's NSSDC Master Catalog

Two Line Element Set (TLE):
1 48269U 21034B   23087.19607826  .00008967  00000-0  92260-3 0  9990
2 48269  97.7132 156.7161 0003421 190.4692 169.6455 14.90526051103742
Source of the keplerian elements: AFSPC